Back to catalog

KUIPER-00126

AliveCommunicationsLEO
NORAD 65955·PAYLOAD·🇺🇸 United States

Launched Oct 14, 2025 from Cape Canaveral Space Force Station

Loading…

Next Passes (next 24 hours)

TLE

FreshSource: CelesTrak SupGP

Epoch: Sep 14, 2026, 13:00 UTC

1 65955C 25228J   26257.54230324  .00003461  00000+0  45305-3 0  2574
2 65955  51.8975 245.4787 0000643  68.5445 290.3045 14.79925766    19

Track KUIPER-00126 in real time with AllMySat

Download on the App Store